[[{"header":{"parameterUnit":"m.s-1","parameterCategory":1,"la1":30.2991,"la2":30.254,"lo1":-89.0895,"lo2":-89.0444,"dy":0.0017,"dx":0.0017,"nx":28,"ny":28,"refTime":"2023-08-16T09:00:00:Z","depth":0,"parameterNumber":2,"parameterNumberName":"U-component_of_WINDS"},"data":[0,0,0,0,0,0,0,0,0,0,0,0,0,0,0,0,0,0,0,0,0,0,0,0,0,0,0,0,0,0,0,0,0,0,0,0,0,0,0,0,0,0,0,0,0,0,0,0,0,0,0,0,0,0,0,0,0,0,3.8642,3.8643,0,3.868,3.868,3.868,3.8564,3.856,3.8557,3.8553,3.8592,3.8596,3.86,0,0,0,0,0,0,0,0,0,0,0,0,0,3.8469,3.8472,3.8642,3.8643,3.8643,3.868,3.868,3.8681,3.8564,3.856,3.8556,3.8552,3.859,3.8596,3.8601,0,0,0,0,0,0,0,0,0,0,0,0,0,3.8529,3.8474,3.8642,3.859,3.8585,3.8679,3.868,3.8681,3.8565,3.856,3.8555,3.855,3.8589,3.8595,3.8602,3.8748,0,0,3.8621,3.8624,0,0,0,0,0,0,0,0,3.8526,3.8535,3.8597,3.8593,3.8589,3.8612,3.8633,3.8703,3.8567,3.8573,3.8553,3.8547,3.8603,3.8608,3.8626,3.875,3.8752,3.8622,3.8626,3.8629,3.8631,0,0,0,0,0,0,0,3.8522,3.8533,3.8657,3.8598,3.8593,3.8563,3.8566,3.8646,3.8617,3.8572,3.8564,3.857,3.8599,3.8621,3.8627,3.8752,3.8622,3.8628,3.8632,3.8634,3.8994,3.9,0,0,0,0,0,0,3.8524,3.853,3.8656,3.8658,3.8543,3.8571,3.8574,3.861,3.8616,3.8612,3.8574,3.8564,3.8612,3.8619,3.8627,3.8797,3.8629,3.8635,3.8638,3.8989,3.8995,3.9002,0,0,0,0,0,0,3.8521,3.8537,3.8654,3.8592,3.8605,3.858,3.8621,3.8613,3.8634,3.8618,3.8612,3.8601,3.8608,3.8618,3.8718,3.8796,3.8638,3.8644,3.8982,3.8991,3.8998,3.9138,0,0,0,0,0,0,3.8517,3.8536,3.8592,3.8594,3.8609,3.8746,3.8626,3.8618,3.8645,3.8633,3.8641,3.8638,3.8605,3.8709,3.8725,3.8802,3.8649,3.8975,3.8986,3.8996,3.9127,3.9151,3.9171,0,0,0,0,0,3.8511,3.8631,3.8596,3.8612,3.8678,3.875,3.8758,3.8718,3.8652,3.8708,3.8697,3.8637,3.8786,3.872,3.8737,3.8818,3.897,3.8983,3.8995,3.9117,3.9146,3.9171,0,0,0,0,0,0,3.864,3.8631,3.8591,3.8716,3.8735,3.873,3.8799,3.8751,3.8789,3.8775,3.8724,3.8726,3.8835,3.8837,3.8764,3.8958,3.8866,3.8883,3.8953,3.8981,3.9003,3.8999,3.8654,0,0,0,0,0,3.8683,3.8743,3.8731,3.8842,3.8853,3.8825,3.8855,3.8822,3.8839,3.8847,3.8843,3.8862,3.8912,3.8947,3.8993,3.9127,3.9125,3.919,3.9213,3.9231,3.9245,3.9313,3.9341,3.9043,3.9043,3.9043,0,0,3.8773,3.8775,3.8816,3.8868,3.8879,3.894,3.8833,3.8903,3.8948,3.8858,3.895,3.8949,3.8967,3.9083,3.9134,3.9088,3.9327,3.9247,3.9262,3.9266,3.9329,3.9357,3.9382,3.9052,3.905,3.9049,0,0,3.8966,3.8975,3.9067,3.9079,3.9096,3.9076,3.9098,3.9101,3.9096,3.9189,3.9121,3.9174,3.9263,3.9277,3.9296,3.9493,3.9438,3.9509,3.9625,3.9691,3.9714,3.9735,3.9802,3.9827,3.9524,3.9524,3.9525,0,3.9075,3.9165,3.912,3.9194,3.9218,3.9139,3.923,3.9244,3.9276,3.9294,3.9241,3.9349,3.9356,3.9473,3.952,3.954,3.9561,3.9507,3.9715,3.9735,3.9753,3.9816,3.9842,3.9533,3.9532,3.9531,3.953,0,3.9297,3.936,3.9432,3.9463,3.9495,3.9578,3.9544,3.9582,3.9546,3.9532,3.9625,3.963,3.9674,3.97,3.9667,3.9812,3.9782,3.9724,3.9629,3.979,3.9849,3.9873,3.9544,3.9541,3.9539,3.9537,0,0,3.9573,3.9576,3.9603,3.9614,3.9626,3.9674,3.9753,3.9795,3.9827,3.9851,3.9914,3.999,3.9935,3.9956,3.9924,3.9982,4.0134,3.9916,3.9915,3.9953,4.0291,4.0333,4.0362,4.0098,4.0103,4.0107,4.0288,0,3.9761,3.9894,3.9854,3.9988,4.0044,3.9969,4.0036,4.005,4.0039,4.0084,4.0071,4.0124,4.0049,4.0061,4.0116,4.0104,4.02,4.0091,4.0154,4.0157,4.015,4.0393,4.0438,4.0609,4.0311,4.0315,4.0318,0,3.9998,4.0029,4.0168,4.0168,4.019,4.0252,4.0285,4.0331,4.0344,4.0331,4.0355,4.0309,4.0384,4.0292,4.0393,4.0319,4.0343,4.0341,4.0347,4.0349,4.0246,4.0399,4.0663,4.0688,4.0354,4.0351,4.0348,0,4.0181,4.0259,4.0351,4.0364,4.0366,4.0411,4.0414,4.0423,4.0449,4.0479,4.0496,4.0535,4.0555,4.0586,4.0551,4.0488,4.0657,4.0562,4.0647,4.0647,4.0684,4.0682,4.0953,4.0705,4.0704,4.0704,4.0703,0,4.0393,4.0481,4.0433,4.0489,4.0584,4.0537,4.0632,4.0627,4.0635,4.0687,4.0626,4.0677,4.0629,4.0676,4.065,4.0736,4.0747,4.0737,4.0728,4.0741,4.0742,4.0754,4.074,4.071,4.0709,4.0708,4.0706,0,4.0614,4.0585,4.068,4.0674,4.0675,4.0744,4.0739,4.079,4.0773,4.0841,4.0854,4.0828,4.0879,4.0848,4.0901,4.0883,4.0995,4.0971,4.099,4.0982,4.1067,4.1059,4.1354,4.1388,4.1121,4.1123,4.1126,0,4.075,4.0814,4.0815,4.0845,4.0852,4.0903,4.093,4.0886,4.0916,4.0935,4.0984,4.103,4.1064,4.1149,4.1134,4.1174,4.1149,4.125,4.1154,4.1164,4.1147,4.1142,4.1147,4.1268,4.1271,4.1274,4.1276,0,4.0993,4.0975,4.1015,4.1051,4.1084,4.111,4.113,4.1159,4.1115,4.1152,4.1203,4.1229,4.1282,4.1327,4.136,4.1362,4.1312,4.1306,4.1327,4.1339,4.1346,4.134,4.1039,4.1299,4.1297,4.1295,4.1294,4.1293,4.1173,4.1225,4.1233,4.1279,4.129,4.131,4.1357,4.1345,4.1387,4.1426,4.1398,4.1458,4.1468,4.1506,4.1515,4.156,4.1519,4.1551,4.1558,4.1566,4.1576,4.1341,4.1567,4.1566,4.1565,4.1565,4.1564,0,4.141,4.1411,4.1454,4.1484,4.152,4.1469,4.1488,4.1521,4.1575,4.1588,4.1622,4.168,4.1723,4.1711,4.175,4.1788,4.1766,4.18,4.1795,4.1796,4.1612,4.1588,4.1817,4.1817,4.1817,4.1817,4.1817,4.1817,4.1537,4.1623,4.1606,4.1695,4.1695,4.1752,4.1768,4.1785,4.1795,4.1862,4.1897,4.1889,4.1891,4.1929,4.1966,4.1961,4.1977,4.2019,4.2006,4.1834,4.1809,4.1785,4.1762,4.2024,4.2024,4.2185,4.2186,4.2188]},{"header":{"parameterUnit":"m.s-1","parameterCategory":1,"la1":30.2991,"la2":30.254,"lo1":-89.0895,"lo2":-89.0444,"dy":0.0017,"dx":0.0017,"nx":28,"ny":28,"refTime":"2023-08-16T09:00:00:Z","depth":0,"parameterNumber":3,"parameterNumberName":"V-component_of_WINDS"},"data":[0,0,0,0,0,0,0,0,0,0,0,0,0,0,0,0,0,0,0,0,0,0,0,0,0,0,0,0,0,0,0,0,0,0,0,0,0,0,0,0,0,0,0,0,0,0,0,0,0,0,0,0,0,0,0,0,0,0,3.2149,3.2149,0,3.212,3.212,3.2119,3.2054,3.2053,3.2051,3.205,3.2019,3.202,3.202,0,0,0,0,0,0,0,0,0,0,0,0,0,3.2147,3.2147,3.2149,3.2149,3.2149,3.212,3.212,3.2119,3.2054,3.2053,3.2051,3.205,3.2019,3.2019,3.202,0,0,0,0,0,0,0,0,0,0,0,0,0,3.2136,3.2148,3.2149,3.2113,3.2109,3.212,3.212,3.2119,3.2055,3.2053,3.2051,3.2049,3.2019,3.2019,3.202,3.2064,0,0,3.2022,3.2022,0,0,0,0,0,0,0,0,3.2137,3.2136,3.2119,3.2115,3.2111,3.2089,3.2107,3.21,3.2055,3.2075,3.205,3.2048,3.2044,3.2042,3.2041,3.2062,3.2061,3.2022,3.2022,3.2023,3.2023,0,0,0,0,0,0,0,3.2137,3.2137,3.2138,3.2118,3.2114,3.2097,3.2093,3.2106,3.2071,3.2073,3.2069,3.2066,3.2041,3.2041,3.204,3.206,3.2022,3.2022,3.2023,3.2023,3.2112,3.2114,0,0,0,0,0,0,3.2144,3.2138,3.2139,3.2137,3.2119,3.2099,3.2094,3.2098,3.2071,3.2065,3.2068,3.2063,3.2041,3.2039,3.2038,3.2085,3.2023,3.2023,3.2023,3.211,3.2112,3.2114,0,0,0,0,0,0,3.2144,3.2144,3.214,3.2136,3.2134,3.2101,3.2105,3.2098,3.2097,3.2067,3.206,3.2073,3.2039,3.2038,3.2057,3.2083,3.2023,3.2024,3.2107,3.2111,3.2113,3.218,0,0,0,0,0,0,3.2144,3.2145,3.2162,3.2137,3.2135,3.216,3.2107,3.2099,3.2099,3.2092,3.207,3.2064,3.2037,3.2056,3.2058,3.2083,3.2024,3.2105,3.2109,3.2112,3.2175,3.2185,3.2193,0,0,0,0,0,3.2144,3.2183,3.2163,3.2164,3.2155,3.2162,3.216,3.2128,3.2101,3.2117,3.2097,3.2065,3.208,3.2059,3.206,3.2085,3.2103,3.2108,3.2112,3.2171,3.2183,3.2193,0,0,0,0,0,0,3.2212,3.2179,3.2157,3.2188,3.2178,3.2151,3.217,3.2142,3.214,3.2134,3.2094,3.209,3.2114,3.2102,3.2079,3.2124,3.2086,3.2091,3.2131,3.2142,3.2151,3.2152,3.2025,0,0,0,0,0,3.223,3.2239,3.2209,3.224,3.2236,3.2204,3.2206,3.2182,3.217,3.2165,3.2146,3.2135,3.2137,3.2139,3.2139,3.2174,3.2166,3.2191,3.22,3.2208,3.2212,3.2226,3.2236,3.2129,3.2129,3.2129,0,0,3.2269,3.2252,3.226,3.2253,3.2242,3.225,3.2201,3.2213,3.2218,3.2167,3.2183,3.2169,3.2154,3.218,3.219,3.2171,3.224,3.2213,3.222,3.2219,3.2231,3.2241,3.225,3.2132,3.2132,3.2131,0,0,3.2342,3.2331,3.2354,3.2344,3.2328,3.2306,3.2312,3.2288,3.2276,3.2292,3.2253,3.2259,3.2264,3.2253,3.2249,3.2316,3.2286,3.2318,3.2363,3.2377,3.2386,3.2393,3.2414,3.2422,3.2322,3.2322,3.2322,0,3.2392,3.2403,3.2369,3.2382,3.2379,3.2333,3.2354,3.2346,3.2332,3.233,3.2308,3.2311,3.2298,3.232,3.2336,3.2335,3.2338,3.2319,3.2387,3.2394,3.24,3.242,3.2428,3.2326,3.2326,3.2325,3.2325,0,3.2463,3.2472,3.2492,3.2478,3.2477,3.2495,3.2462,3.2465,3.2441,3.2421,3.2436,3.2419,3.2413,3.2417,3.2394,3.2434,3.2422,3.2395,3.2355,3.2415,3.2432,3.244,3.2331,3.233,3.2329,3.2328,0,0,3.2578,3.2544,3.2552,3.2543,3.2522,3.2527,3.2542,3.2536,3.2538,3.2529,3.2539,3.2543,3.2516,3.2511,3.2487,3.2499,3.255,3.247,3.2469,3.2483,3.259,3.2609,3.2618,3.253,3.2532,3.2533,3.259,0,3.2645,3.2667,3.2636,3.2665,3.2671,3.2626,3.2638,3.2626,3.2607,3.2609,3.2588,3.259,3.2557,3.2553,3.2563,3.2542,3.257,3.2537,3.2536,3.2537,3.2539,3.2628,3.2649,3.2704,3.2597,3.2598,3.2599,0,3.2725,3.2719,3.2749,3.2723,3.2724,3.2735,3.2726,3.2729,3.2712,3.2698,3.2691,3.2662,3.2672,3.2635,3.2647,3.2626,3.2623,3.2612,3.2614,3.2611,3.257,3.2625,3.2721,3.2728,3.261,3.2609,3.2608,0,3.2803,3.2802,3.2819,3.2814,3.2784,3.2793,3.2781,3.2763,3.2761,3.2753,3.275,3.2744,3.274,3.2734,3.2703,3.268,3.2718,3.2679,3.2704,3.2705,3.2713,3.2712,3.2807,3.2716,3.2716,3.2716,3.2715,0,3.2879,3.2898,3.2853,3.2863,3.2882,3.2845,3.2865,3.2849,3.2833,3.2837,3.2799,3.2804,3.2764,3.2764,3.274,3.2752,3.2751,3.2738,3.2731,3.274,3.2741,3.2736,3.2731,3.2718,3.2717,3.2717,3.2716,0,3.2968,3.2939,3.2953,3.2924,3.2917,3.2932,3.2906,3.2914,3.2892,3.2899,3.2898,3.2864,3.2862,3.2831,3.2823,3.2806,3.2827,3.2814,3.2832,3.2827,3.2853,3.285,3.2946,3.2955,3.286,3.2861,3.2862,0,3.3017,3.3031,3.3002,3.3003,3.2992,3.2994,3.2991,3.2955,3.2953,3.2934,3.2943,3.2938,3.2932,3.2931,3.2905,3.2897,3.2882,3.2916,3.2881,3.2889,3.2879,3.2878,3.2878,3.2923,3.2925,3.2926,3.2927,0,3.3107,3.3091,3.3089,3.308,3.3077,3.3069,3.3059,3.3061,3.3021,3.3021,3.3018,3.3013,3.3004,3.2998,3.2986,3.2972,3.2942,3.2938,3.2943,3.2951,3.296,3.2953,3.285,3.2936,3.2935,3.2934,3.2934,3.2933,3.3176,3.3184,3.3165,3.3162,3.315,3.3141,3.3145,3.3124,3.3121,3.311,3.3089,3.3089,3.307,3.305,3.3039,3.3037,3.3019,3.3027,3.3029,3.303,3.3034,3.2962,3.3035,3.3035,3.3035,3.3034,3.3034,0,3.3261,3.3246,3.3244,3.3229,3.3227,3.3199,3.3185,3.3184,3.3185,3.317,3.3164,3.316,3.3154,3.3127,3.3117,3.3121,3.3107,3.3119,3.3118,3.3114,3.3052,3.3048,3.3131,3.3131,3.3131,3.3131,3.3131,3.3131,3.3304,3.3316,3.3298,3.3303,3.3288,3.3287,3.3281,3.3271,3.3259,3.3255,3.325,3.3233,3.3212,3.32,3.3193,3.3185,3.3182,3.3199,3.3186,3.3128,3.3119,3.311,3.3105,3.3199,3.32,3.3248,3.3248,3.3249]}]]